Time,TemperatureF,DewpointF,PressureIn,WindDirection,WindDirectionDegrees,WindSpeedMPH,WindSpeedGustMPH,Humidity,HourlyPrecipIn,Conditions,Clouds,dailyrainin,SoftwareType,DateUTC
2013-01-17 00:04:00,28.4,26.1,30.25,NW,312,0.0,0.0,91,0.00,,---,0.00,VWS V14.01,2013-01-17 06:04:00,
2013-01-17 00:09:00,29.1,26.8,30.26,NW,312,0.0,0.0,91,0.00,,---,0.00,VWS V14.01,2013-01-17 06:09:00,
2013-01-17 00:14:00,29.4,26.8,30.25,NW,312,0.0,0.0,90,0.00,,---,0.00,VWS V14.01,2013-01-17 06:14:00,
2013-01-17 00:19:00,29.6,27.0,30.25,NW,312,0.0,0.0,90,0.00,,---,0.00,VWS V14.01,2013-01-17 06:19:00,
2013-01-17 00:24:00,29.8,27.0,30.25,NW,312,0.0,0.0,89,0.00,,---,0.00,VWS V14.01,2013-01-17 06:24:00,
2013-01-17 00:29:00,30.0,27.2,30.25,NW,312,0.0,0.0,89,0.00,,---,0.00,VWS V14.01,2013-01-17 06:29:00,
2013-01-17 00:34:00,30.2,27.4,30.26,NW,312,0.0,0.0,89,0.00,,---,0.00,VWS V14.01,2013-01-17 06:34:00,
2013-01-17 00:39:00,30.5,27.6,30.26,NW,312,0.0,0.0,89,0.00,,---,0.00,VWS V14.01,2013-01-17 06:39:00,
2013-01-17 00:44:00,30.8,28.0,30.26,NW,312,0.0,0.0,89,0.00,,---,0.00,VWS V14.01,2013-01-17 06:44:00,
2013-01-17 00:49:00,31.2,28.1,30.26,NW,312,0.0,0.0,88,0.00,,---,0.00,VWS V14.01,2013-01-17 06:49:00,
2013-01-17 00:55:00,31.4,28.3,30.26,NW,312,0.0,0.0,88,0.00,,---,0.00,VWS V14.01,2013-01-17 06:55:00,
2013-01-17 01:00:00,31.6,28.5,30.26,NW,312,0.0,0.0,88,0.00,,---,0.00,VWS V14.01,2013-01-17 07:00:00,
2013-01-17 01:05:00,31.7,28.3,30.26,NW,312,0.0,0.0,87,0.00,,---,0.00,VWS V14.01,2013-01-17 07:05:00,
2013-01-17 01:10:00,32.0,28.3,30.27,NW,312,0.0,0.0,86,0.00,,---,0.00,VWS V14.01,2013-01-17 07:10:00,
2013-01-17 01:15:00,32.2,28.2,30.27,NW,312,0.0,0.0,85,0.00,,---,0.00,VWS V14.01,2013-01-17 07:15:00,
2013-01-17 01:20:00,32.3,28.3,30.27,NW,312,0.0,0.0,85,0.00,,---,0.00,VWS V14.01,2013-01-17 07:20:00,
2013-01-17 01:25:00,32.3,28.0,30.27,NW,312,0.0,0.0,84,0.00,,---,0.00,VWS V14.01,2013-01-17 07:25:00,
2013-01-17 01:30:00,32.2,27.6,30.27,NW,312,0.0,0.0,83,0.00,,---,0.00,VWS V14.01,2013-01-17 07:30:00,
2013-01-17 01:35:00,32.1,27.5,30.27,NW,312,0.0,0.0,83,0.00,,---,0.00,VWS V14.01,2013-01-17 07:35:00,
2013-01-17 01:40:00,31.9,27.3,30.27,NW,312,0.0,0.0,83,0.00,,---,0.00,VWS V14.01,2013-01-17 07:40:00,
2013-01-17 01:45:00,31.7,27.1,30.27,NW,312,0.0,0.0,83,0.00,,---,0.00,VWS V14.01,2013-01-17 07:45:00,
2013-01-17 01:50:00,31.5,26.9,30.27,NW,312,0.0,0.0,83,0.00,,---,0.00,VWS V14.01,2013-01-17 07:50:00,
2013-01-17 01:55:00,31.2,26.9,30.28,NW,312,0.0,0.0,84,0.00,,---,0.00,VWS V14.01,2013-01-17 07:55:00,
2013-01-17 02:00:00,31.0,26.7,30.28,NW,312,0.0,0.0,84,0.00,,---,0.00,VWS V14.01,2013-01-17 08:00:00,
2013-01-17 02:05:00,30.8,26.8,30.28,NW,312,0.0,0.0,85,0.00,,---,0.00,VWS V14.01,2013-01-17 08:05:00,
2013-01-17 02:10:00,30.6,26.9,30.28,NW,312,0.0,0.0,86,0.00,,---,0.00,VWS V14.01,2013-01-17 08:10:00,
2013-01-17 02:16:00,30.5,26.8,30.28,NW,312,0.0,0.0,86,0.00,,---,0.00,VWS V14.01,2013-01-17 08:16:00,
2013-01-17 02:21:00,30.2,26.5,30.28,NW,312,0.0,0.0,86,0.00,,---,0.00,VWS V14.01,2013-01-17 08:21:00,
2013-01-17 02:26:00,30.1,26.4,30.28,NW,312,0.0,0.0,86,0.00,,---,0.00,VWS V14.01,2013-01-17 08:26:00,
2013-01-17 02:31:00,29.9,26.5,30.28,NW,312,0.0,0.0,87,0.00,,---,0.00,VWS V14.01,2013-01-17 08:31:00,
2013-01-17 02:36:00,29.8,26.4,30.28,NW,312,0.0,0.0,87,0.00,,---,0.00,VWS V14.01,2013-01-17 08:36:00,
2013-01-17 02:41:00,29.7,26.3,30.28,NW,312,0.0,0.0,87,0.00,,---,0.00,VWS V14.01,2013-01-17 08:41:00,
2013-01-17 02:46:00,29.5,26.1,30.28,NW,312,0.0,0.0,87,0.00,,---,0.00,VWS V14.01,2013-01-17 08:46:00,
2013-01-17 02:51:00,29.3,26.2,30.28,NW,312,0.0,0.0,88,0.00,,---,0.00,VWS V14.01,2013-01-17 08:51:00,
2013-01-17 02:56:00,29.2,26.1,30.28,NW,312,0.0,0.0,88,0.00,,---,0.00,VWS V14.01,2013-01-17 08:56:00,
2013-01-17 03:01:00,29.0,25.9,30.28,NW,312,0.0,0.0,88,0.00,,---,0.00,VWS V14.01,2013-01-17 09:01:00,
2013-01-17 03:06:00,28.9,25.8,30.28,NW,312,0.0,0.0,88,0.00,,---,0.00,VWS V14.01,2013-01-17 09:06:00,
2013-01-17 03:11:00,28.7,25.9,30.28,NW,312,0.0,0.0,89,0.00,,---,0.00,VWS V14.01,2013-01-17 09:11:00,
2013-01-17 03:16:00,28.8,26.0,30.28,NW,312,0.0,0.0,89,0.00,,---,0.00,VWS V14.01,2013-01-17 09:16:00,
2013-01-17 03:21:00,29.0,26.4,30.28,NW,312,0.0,0.0,90,0.00,,---,0.00,VWS V14.01,2013-01-17 09:21:00,
2013-01-17 03:26:00,29.0,26.2,30.28,NW,312,0.0,0.0,89,0.00,,---,0.00,VWS V14.01,2013-01-17 09:26:00,
2013-01-17 03:31:00,28.9,26.1,30.28,NW,312,0.0,0.0,89,0.00,,---,0.00,VWS V14.01,2013-01-17 09:31:00,
2013-01-17 03:37:00,28.7,25.9,30.28,NW,312,0.0,0.0,89,0.00,,---,0.00,VWS V14.01,2013-01-17 09:37:00,
2013-01-17 03:42:00,28.5,25.4,30.28,NW,312,0.0,0.0,88,0.00,,---,0.00,VWS V14.01,2013-01-17 09:42:00,
2013-01-17 03:46:00,28.5,25.7,30.29,NW,312,0.0,0.0,89,0.00,,---,0.00,VWS V14.01,2013-01-17 09:46:00,
2013-01-17 03:51:00,28.4,25.6,30.29,NW,312,0.0,0.0,89,0.00,,---,0.00,VWS V14.01,2013-01-17 09:51:00,
2013-01-17 03:57:00,28.1,25.3,30.29,NW,312,0.0,0.0,89,0.00,,---,0.00,VWS V14.01,2013-01-17 09:57:00,
2013-01-17 04:02:00,28.0,25.2,30.29,NW,312,0.0,0.0,89,0.00,,---,0.00,VWS V14.01,2013-01-17 10:02:00,
2013-01-17 04:07:00,27.9,25.1,30.29,NW,312,0.0,0.0,89,0.00,,---,0.00,VWS V14.01,2013-01-17 10:07:00,
2013-01-17 04:12:00,27.7,24.9,30.29,NW,312,0.0,0.0,89,0.00,,---,0.00,VWS V14.01,2013-01-17 10:12:00,
2013-01-17 04:17:00,27.7,25.2,30.29,NW,312,0.0,0.0,90,0.00,,---,0.00,VWS V14.01,2013-01-17 10:17:00,
2013-01-17 04:22:00,27.7,25.2,30.30,NW,312,0.0,0.0,90,0.00,,---,0.00,VWS V14.01,2013-01-17 10:22:00,
2013-01-17 04:27:00,27.7,25.2,30.30,NW,312,0.0,0.0,90,0.00,,---,0.00,VWS V14.01,2013-01-17 10:27:00,
2013-01-17 04:32:00,27.7,25.2,30.30,NW,312,0.0,0.0,90,0.00,,---,0.00,VWS V14.01,2013-01-17 10:32:00,
2013-01-17 04:37:00,27.6,25.1,30.30,NW,312,0.0,0.0,90,0.00,,---,0.00,VWS V14.01,2013-01-17 10:37:00,
2013-01-17 04:42:00,27.5,25.0,30.30,NW,312,0.0,0.0,90,0.00,,---,0.00,VWS V14.01,2013-01-17 10:42:00,
2013-01-17 04:47:00,27.4,24.9,30.30,NW,312,0.0,0.0,90,0.00,,---,0.00,VWS V14.01,2013-01-17 10:47:00,
2013-01-17 04:52:00,27.4,24.9,30.30,NW,312,0.0,0.0,90,0.00,,---,0.00,VWS V14.01,2013-01-17 10:52:00,
2013-01-17 04:57:00,27.4,24.9,30.30,NW,312,0.0,0.0,90,0.00,,---,0.00,VWS V14.01,2013-01-17 10:57:00,
2013-01-17 05:02:00,27.4,24.9,30.30,NW,312,0.0,0.0,90,0.00,,---,0.00,VWS V14.01,2013-01-17 11:02:00,
2013-01-17 05:07:00,27.5,25.0,30.30,NW,312,0.0,0.0,90,0.00,,---,0.00,VWS V14.01,2013-01-17 11:07:00,
2013-01-17 05:12:00,27.5,25.0,30.30,NW,312,0.0,0.0,90,0.00,,---,0.00,VWS V14.01,2013-01-17 11:12:00,
2013-01-17 05:17:00,27.5,25.0,30.31,NW,312,0.0,0.0,90,0.00,,---,0.00,VWS V14.01,2013-01-17 11:17:00,
2013-01-17 05:22:00,27.5,25.0,30.31,NW,312,0.0,0.0,90,0.00,,---,0.00,VWS V14.01,2013-01-17 11:22:00,
2013-01-17 05:27:00,27.4,24.9,30.31,NW,312,0.0,0.0,90,0.00,,---,0.00,VWS V14.01,2013-01-17 11:27:00,
2013-01-17 05:33:00,27.5,25.0,30.31,NW,312,0.0,0.0,90,0.00,,---,0.00,VWS V14.01,2013-01-17 11:33:00,
2013-01-17 05:38:00,27.6,25.3,30.31,NW,312,0.0,0.0,91,0.00,,---,0.00,VWS V14.01,2013-01-17 11:38:00,
2013-01-17 05:43:00,27.9,25.9,30.31,NW,309,0.0,1.0,92,0.00,,---,0.00,VWS V14.01,2013-01-17 11:43:00,
2013-01-17 05:48:00,28.2,25.9,30.31,NW,308,0.0,0.0,91,0.00,,---,0.00,VWS V14.01,2013-01-17 11:48:00,
2013-01-17 05:53:00,28.2,25.6,30.32,NW,308,0.0,0.0,90,0.00,,---,0.00,VWS V14.01,2013-01-17 11:53:00,
2013-01-17 05:58:00,28.5,26.0,30.32,NW,308,0.0,0.0,90,0.00,,---,0.00,VWS V14.01,2013-01-17 11:58:00,
2013-01-17 06:03:00,28.9,26.1,30.31,NW,308,0.0,0.0,89,0.00,,---,0.00,VWS V14.01,2013-01-17 12:03:00,
2013-01-17 06:08:00,29.1,26.3,30.32,NW,308,0.0,0.0,89,0.00,,---,0.00,VWS V14.01,2013-01-17 12:08:00,
2013-01-17 06:13:00,29.1,26.3,30.32,NW,308,0.0,0.0,89,0.00,,---,0.00,VWS V14.01,2013-01-17 12:13:00,
2013-01-17 06:18:00,29.1,26.5,30.32,NW,308,0.0,0.0,90,0.00,,---,0.00,VWS V14.01,2013-01-17 12:18:00,
2013-01-17 06:23:00,29.1,26.5,30.32,NW,308,0.0,0.0,90,0.00,,---,0.00,VWS V14.01,2013-01-17 12:23:00,
2013-01-17 06:28:00,29.1,26.5,30.32,NW,308,0.0,0.0,90,0.00,,---,0.00,VWS V14.01,2013-01-17 12:28:00,
2013-01-17 06:33:00,29.1,26.5,30.33,NW,308,0.0,0.0,90,0.00,,---,0.00,VWS V14.01,2013-01-17 12:33:00,
2013-01-17 06:38:00,29.2,26.6,30.33,NW,308,0.0,0.0,90,0.00,,---,0.00,VWS V14.01,2013-01-17 12:38:00,
2013-01-17 06:43:00,29.7,26.9,30.33,NW,308,0.0,1.0,89,0.00,,---,0.00,VWS V14.01,2013-01-17 12:43:00,
2013-01-17 06:48:00,30.8,27.7,30.34,NW,307,0.0,1.0,88,0.00,,---,0.00,VWS V14.01,2013-01-17 12:48:00,
2013-01-17 06:54:00,31.4,27.1,30.34,NW,307,0.0,0.0,84,0.00,,---,0.00,VWS V14.01,2013-01-17 12:54:00,
2013-01-17 06:59:00,30.9,26.6,30.34,NW,307,0.0,0.0,84,0.00,,---,0.00,VWS V14.01,2013-01-17 12:59:00,
2013-01-17 07:04:00,30.9,26.9,30.34,NW,307,0.0,0.0,85,0.00,,---,0.00,VWS V14.01,2013-01-17 13:04:00,
2013-01-17 07:09:00,31.3,27.0,30.35,NW,307,0.0,0.0,84,0.00,,---,0.00,VWS V14.01,2013-01-17 13:09:00,
2013-01-17 07:14:00,31.6,27.0,30.35,NW,307,0.0,0.0,83,0.00,,---,0.00,VWS V14.01,2013-01-17 13:14:00,
2013-01-17 07:19:00,31.4,26.5,30.35,NW,307,0.0,0.0,82,0.00,,---,0.00,VWS V14.01,2013-01-17 13:19:00,
2013-01-17 07:24:00,31.0,26.5,30.35,NW,307,0.0,0.0,83,0.00,,---,0.00,VWS V14.01,2013-01-17 13:24:00,
2013-01-17 07:29:00,31.0,26.5,30.36,NW,307,0.0,0.0,83,0.00,,---,0.00,VWS V14.01,2013-01-17 13:29:00,
2013-01-17 07:34:00,31.2,26.6,30.36,NW,307,0.0,0.0,83,0.00,,---,0.00,VWS V14.01,2013-01-17 13:34:00,
2013-01-17 07:40:00,31.5,26.9,30.36,NW,307,0.0,0.0,83,0.00,,---,0.00,VWS V14.01,2013-01-17 13:40:00,
2013-01-17 07:45:00,31.7,26.8,30.36,NW,307,0.0,0.0,82,0.00,,---,0.00,VWS V14.01,2013-01-17 13:45:00,
2013-01-17 07:50:00,31.8,26.9,30.36,NW,307,0.0,0.0,82,0.00,,---,0.00,VWS V14.01,2013-01-17 13:50:00,
2013-01-17 07:55:00,32.0,27.4,30.37,NW,307,0.0,0.0,83,0.00,,---,0.00,VWS V14.01,2013-01-17 13:55:00,
2013-01-17 08:00:00,32.5,27.9,30.37,NW,307,0.0,0.0,83,0.00,,---,0.00,VWS V14.01,2013-01-17 14:00:00,
2013-01-17 08:05:00,33.0,28.4,30.37,NW,307,0.0,0.0,83,0.00,,---,0.00,VWS V14.01,2013-01-17 14:05:00,
2013-01-17 08:10:00,33.6,29.0,30.37,NW,307,0.0,0.0,83,0.00,,---,0.00,VWS V14.01,2013-01-17 14:10:00,
2013-01-17 08:15:00,34.4,29.5,30.37,NW,307,0.0,0.0,82,0.00,,---,0.00,VWS V14.01,2013-01-17 14:15:00,
2013-01-17 08:20:00,35.1,30.2,30.38,NW,307,0.0,0.0,82,0.00,,---,0.00,VWS V14.01,2013-01-17 14:20:00,
2013-01-17 08:25:00,36.0,30.4,30.38,NW,307,0.0,0.0,80,0.00,,---,0.00,VWS V14.01,2013-01-17 14:25:00,
2013-01-17 08:31:00,37.0,31.4,30.38,NW,307,0.0,1.0,80,0.00,,---,0.00,VWS V14.01,2013-01-17 14:31:00,
2013-01-17 08:36:00,38.3,32.4,30.38,NW,323,1.0,1.0,79,0.00,,---,0.00,VWS V14.01,2013-01-17 14:36:00,
2013-01-17 08:41:00,39.5,31.9,30.39,NNW,328,1.0,3.0,74,0.00,,---,0.00,VWS V14.01,2013-01-17 14:41:00,
2013-01-17 08:46:00,40.8,32.5,30.39,WSW,251,0.0,5.0,72,0.00,,---,0.00,VWS V14.01,2013-01-17 14:46:00,
2013-01-17 08:51:00,42.0,32.2,30.39,NNW,348,1.0,4.0,68,0.00,,---,0.00,VWS V14.01,2013-01-17 14:51:00,
2013-01-17 08:56:00,42.9,32.7,30.40,North,5,2.0,2.0,67,0.00,,---,0.00,VWS V14.01,2013-01-17 14:56:00,
2013-01-17 09:01:00,43.7,32.7,30.40,NW,317,0.0,6.0,65,0.00,,---,0.00,VWS V14.01,2013-01-17 15:01:00,
2013-01-17 09:06:00,44.2,32.8,30.41,NNW,341,0.0,3.0,64,0.00,,---,0.00,VWS V14.01,2013-01-17 15:06:00,
2013-01-17 09:11:00,44.9,32.7,30.41,WNW,296,0.0,8.0,62,0.00,,---,0.00,VWS V14.01,2013-01-17 15:11:00,
2013-01-17 09:16:00,45.4,33.2,30.41,NW,324,4.0,6.0,62,0.00,,---,0.00,VWS V14.01,2013-01-17 15:16:00,
2013-01-17 09:21:00,45.9,33.2,30.42,NW,307,7.0,7.0,61,0.00,,---,0.00,VWS V14.01,2013-01-17 15:21:00,
2013-01-17 09:26:00,46.2,33.1,30.42,NNW,339,4.0,6.0,60,0.00,,---,0.00,VWS V14.01,2013-01-17 15:26:00,
2013-01-17 09:31:00,46.8,33.2,30.42,NNW,333,5.0,8.0,59,0.00,,---,0.00,VWS V14.01,2013-01-17 15:31:00,
2013-01-17 09:36:00,47.4,33.8,30.43,NW,321,5.0,8.0,59,0.00,,---,0.00,VWS V14.01,2013-01-17 15:36:00,
2013-01-17 09:42:00,47.6,34.0,30.43,NNW,329,1.0,5.0,59,0.00,,---,0.00,VWS V14.01,2013-01-17 15:42:00,
2013-01-17 09:47:00,48.1,34.5,30.43,North,360,1.0,5.0,59,0.00,,---,0.00,VWS V14.01,2013-01-17 15:47:00,
2013-01-17 09:52:00,48.3,33.8,30.43,NNW,331,2.0,7.0,57,0.00,,---,0.00,VWS V14.01,2013-01-17 15:52:00,
2013-01-17 09:57:00,48.3,33.3,30.44,NW,318,0.0,8.0,56,0.00,,---,0.00,VWS V14.01,2013-01-17 15:57:00,
2013-01-17 10:02:00,48.4,33.4,30.44,NNW,331,0.0,9.0,56,0.00,,---,0.00,VWS V14.01,2013-01-17 16:02:00,
2013-01-17 10:07:00,48.7,33.7,30.44,NW,317,2.0,9.0,56,0.00,,---,0.00,VWS V14.01,2013-01-17 16:07:00,
2013-01-17 10:12:00,48.8,33.8,30.44,NW,325,1.0,7.0,56,0.00,,---,0.00,VWS V14.01,2013-01-17 16:12:00,
2013-01-17 10:17:00,49.2,34.6,30.44,NNW,340,2.0,6.0,57,0.00,,---,0.00,VWS V14.01,2013-01-17 16:17:00,
2013-01-17 10:22:00,49.6,34.6,30.44,North,360,4.0,5.0,56,0.00,,---,0.00,VWS V14.01,2013-01-17 16:22:00,
2013-01-17 10:27:00,50.3,34.8,30.44,NW,313,3.0,5.0,55,0.00,,---,0.00,VWS V14.01,2013-01-17 16:27:00,
2013-01-17 10:32:00,51.0,35.0,30.44,NW,317,4.0,4.0,54,0.00,,---,0.00,VWS V14.01,2013-01-17 16:32:00,
2013-01-17 10:37:00,51.3,34.8,30.45,NNW,346,3.0,5.0,53,0.00,,---,0.00,VWS V14.01,2013-01-17 16:37:00,
2013-01-17 10:43:00,51.9,34.8,30.44,NW,323,3.0,8.0,52,0.00,,---,0.00,VWS V14.01,2013-01-17 16:43:00,
2013-01-17 10:48:00,52.1,34.5,30.44,NW,311,5.0,6.0,51,0.00,,---,0.00,VWS V14.01,2013-01-17 16:48:00,
2013-01-17 10:53:00,52.2,35.1,30.45,North,5,5.0,5.0,52,0.00,,---,0.00,VWS V14.01,2013-01-17 16:53:00,
2013-01-17 10:58:00,52.5,34.9,30.45,NNE,29,0.0,5.0,51,0.00,,---,0.00,VWS V14.01,2013-01-17 16:58:00,
2013-01-17 11:03:00,52.8,34.7,30.45,NW,319,1.0,7.0,50,0.00,,---,0.00,VWS V14.01,2013-01-17 17:03:00,
2013-01-17 11:08:00,53.1,35.0,30.45,NNW,340,0.0,6.0,50,0.00,,---,0.00,VWS V14.01,2013-01-17 17:08:00,
2013-01-17 11:13:00,53.5,34.8,30.44,South,183,1.0,6.0,49,0.00,,---,0.00,VWS V14.01,2013-01-17 17:13:00,
2013-01-17 11:18:00,53.7,35.0,30.44,NW,308,3.0,6.0,49,0.00,,---,0.00,VWS V14.01,2013-01-17 17:18:00,
2013-01-17 11:23:00,54.1,34.9,30.44,NW,319,4.0,8.0,48,0.00,,---,0.00,VWS V14.01,2013-01-17 17:23:00,
2013-01-17 11:28:00,54.1,34.9,30.44,NNE,22,5.0,6.0,48,0.00,,---,0.00,VWS V14.01,2013-01-17 17:28:00,
2013-01-17 11:33:00,54.5,35.2,30.44,NW,322,6.0,6.0,48,0.00,,---,0.00,VWS V14.01,2013-01-17 17:33:00,
2013-01-17 11:38:00,54.8,36.0,30.44,NNW,327,0.0,7.0,49,0.00,,---,0.00,VWS V14.01,2013-01-17 17:38:00,
2013-01-17 11:43:00,54.9,35.1,30.44,NNE,17,4.0,9.0,47,0.00,,---,0.00,VWS V14.01,2013-01-17 17:43:00,
2013-01-17 11:48:00,54.9,35.1,30.44,NNW,331,9.0,10.0,47,0.00,,---,0.00,VWS V14.01,2013-01-17 17:48:00,
2013-01-17 11:53:00,54.9,35.6,30.44,NW,323,6.0,8.0,48,0.00,,---,0.00,VWS V14.01,2013-01-17 17:53:00,
2013-01-17 11:58:00,55.2,35.3,30.43,NNW,340,4.0,9.0,47,0.00,,---,0.00,VWS V14.01,2013-01-17 17:58:00,
2013-01-17 12:03:00,55.0,35.2,30.43,NNW,348,4.0,11.0,47,0.00,,---,0.00,VWS V14.01,2013-01-17 18:03:00,
2013-01-17 12:08:00,55.2,35.3,30.43,West,262,3.0,9.0,47,0.00,,---,0.00,VWS V14.01,2013-01-17 18:08:00,
2013-01-17 12:13:00,55.6,35.7,30.43,NNW,343,1.0,8.0,47,0.00,,---,0.00,VWS V14.01,2013-01-17 18:13:00,
2013-01-17 12:18:00,55.9,36.0,30.43,West,259,0.0,9.0,47,0.00,,---,0.00,VWS V14.01,2013-01-17 18:18:00,
2013-01-17 12:23:00,56.1,35.6,30.42,NNW,333,4.0,6.0,46,0.00,,---,0.00,VWS V14.01,2013-01-17 18:23:00,
2013-01-17 12:29:00,56.2,35.7,30.42,NNW,329,6.0,6.0,46,0.00,,---,0.00,VWS V14.01,2013-01-17 18:29:00,
2013-01-17 12:34:00,56.1,35.6,30.42,NNW,345,0.0,5.0,46,0.00,,---,0.00,VWS V14.01,2013-01-17 18:34:00,
2013-01-17 12:39:00,56.4,35.9,30.42,NNW,346,3.0,6.0,46,0.00,,---,0.00,VWS V14.01,2013-01-17 18:39:00,
2013-01-17 12:44:00,56.7,36.2,30.42,NNW,327,1.0,8.0,46,0.00,,---,0.00,VWS V14.01,2013-01-17 18:44:00,
2013-01-17 12:49:00,57.0,35.3,30.41,NNE,30,4.0,7.0,44,0.00,,---,0.00,VWS V14.01,2013-01-17 18:49:00,
2013-01-17 12:54:00,57.0,35.9,30.41,WSW,247,1.0,7.0,45,0.00,,---,0.00,VWS V14.01,2013-01-17 18:54:00,
2013-01-17 12:59:00,57.5,36.3,30.41,NNW,329,1.0,5.0,45,0.00,,---,0.00,VWS V14.01,2013-01-17 18:59:00,
2013-01-17 13:04:00,58.2,36.4,30.41,NNE,13,2.0,7.0,44,0.00,,---,0.00,VWS V14.01,2013-01-17 19:04:00,
2013-01-17 13:09:00,58.4,36.6,30.41,NNW,343,3.0,9.0,44,0.00,,---,0.00,VWS V14.01,2013-01-17 19:09:00,
2013-01-17 13:14:00,58.5,36.1,30.41,NNW,334,2.0,7.0,43,0.00,,---,0.00,VWS V14.01,2013-01-17 19:14:00,
2013-01-17 13:19:00,58.8,35.8,30.40,NNE,20,4.0,8.0,42,0.00,,---,0.00,VWS V14.01,2013-01-17 19:19:00,
2013-01-17 13:24:00,58.4,36.0,30.40,North,351,2.0,11.0,43,0.00,,---,0.00,VWS V14.01,2013-01-17 19:24:00,
2013-01-17 13:29:00,58.9,35.9,30.40,NW,308,4.0,10.0,42,0.00,,---,0.00,VWS V14.01,2013-01-17 19:29:00,
2013-01-17 13:34:00,59.2,34.9,30.40,NNW,333,4.0,9.0,40,0.00,,---,0.00,VWS V14.01,2013-01-17 19:34:00,
2013-01-17 13:39:00,59.4,35.1,30.40,NW,320,1.0,9.0,40,0.00,,---,0.00,VWS V14.01,2013-01-17 19:39:00,
2013-01-17 13:44:00,59.9,36.2,30.40,North,355,2.0,10.0,41,0.00,,---,0.00,VWS V14.01,2013-01-17 19:44:00,
2013-01-17 13:50:00,59.9,34.9,30.40,North,350,7.0,15.0,39,0.00,,---,0.00,VWS V14.01,2013-01-17 19:50:00,
2013-01-17 13:55:00,59.8,34.8,30.40,North,355,1.0,7.0,39,0.00,,---,0.00,VWS V14.01,2013-01-17 19:55:00,
2013-01-17 14:00:00,59.9,35.5,30.40,NNE,14,6.0,9.0,40,0.00,,---,0.00,VWS V14.01,2013-01-17 20:00:00,
2013-01-17 14:05:00,59.9,34.9,30.40,North,350,1.0,6.0,39,0.00,,---,0.00,VWS V14.01,2013-01-17 20:05:00,
2013-01-17 14:10:00,60.0,35.0,30.40,NNE,23,0.0,9.0,39,0.00,,---,0.00,VWS V14.01,2013-01-17 20:10:00,
2013-01-17 14:15:00,60.4,34.7,30.39,NNW,333,3.0,5.0,38,0.00,,---,0.00,VWS V14.01,2013-01-17 20:15:00,
2013-01-17 14:20:00,60.3,35.3,30.39,NNW,333,4.0,11.0,39,0.00,,---,0.00,VWS V14.01,2013-01-17 20:20:00,
2013-01-17 14:25:00,60.3,34.6,30.39,NNE,25,13.0,13.0,38,0.00,,---,0.00,VWS V14.01,2013-01-17 20:25:00,
2013-01-17 14:30:00,60.0,34.3,30.39,North,360,4.0,13.0,38,0.00,,---,0.00,VWS V14.01,2013-01-17 20:30:00,
2013-01-17 14:35:00,60.2,35.2,30.39,NW,321,5.0,5.0,39,0.00,,---,0.00,VWS V14.01,2013-01-17 20:35:00,
2013-01-17 14:40:00,60.4,34.0,30.39,NW,324,5.0,10.0,37,0.00,,---,0.00,VWS V14.01,2013-01-17 20:40:00,
2013-01-17 14:45:00,60.4,34.7,30.39,NNE,19,1.0,6.0,38,0.00,,---,0.00,VWS V14.01,2013-01-17 20:45:00,
2013-01-17 14:50:00,60.8,35.1,30.39,NNW,339,4.0,8.0,38,0.00,,---,0.00,VWS V14.01,2013-01-17 20:50:00,
2013-01-17 14:56:00,60.8,35.7,30.39,NNE,13,1.0,6.0,39,0.00,,---,0.00,VWS V14.01,2013-01-17 20:56:00,
2013-01-17 15:01:00,60.7,35.0,30.39,NW,319,2.0,12.0,38,0.00,,---,0.00,VWS V14.01,2013-01-17 21:01:00,
2013-01-17 15:06:00,60.3,34.6,30.39,North,350,5.0,9.0,38,0.00,,---,0.00,VWS V14.01,2013-01-17 21:06:00,
2013-01-17 15:11:00,60.0,33.7,30.39,NNW,345,2.0,7.0,37,0.00,,---,0.00,VWS V14.01,2013-01-17 21:11:00,
2013-01-17 15:16:00,59.9,33.6,30.39,WNW,298,4.0,9.0,37,0.00,,---,0.00,VWS V14.01,2013-01-17 21:16:00,
2013-01-17 15:21:00,59.8,33.5,30.39,NNW,340,5.0,8.0,37,0.00,,---,0.00,VWS V14.01,2013-01-17 21:21:00,
2013-01-17 15:26:00,59.8,33.5,30.39,NNW,342,4.0,7.0,37,0.00,,---,0.00,VWS V14.01,2013-01-17 21:26:00,
2013-01-17 15:31:00,59.6,33.3,30.40,NW,318,3.0,6.0,37,0.00,,---,0.00,VWS V14.01,2013-01-17 21:31:00,
2013-01-17 15:36:00,59.7,34.1,30.40,NNW,333,7.0,8.0,38,0.00,,---,0.00,VWS V14.01,2013-01-17 21:36:00,
2013-01-17 15:41:00,59.7,34.1,30.40,North,349,3.0,5.0,38,0.00,,---,0.00,VWS V14.01,2013-01-17 21:41:00,
2013-01-17 15:46:00,59.8,34.2,30.40,NW,324,6.0,9.0,38,0.00,,---,0.00,VWS V14.01,2013-01-17 21:46:00,
2013-01-17 15:51:00,59.8,34.2,30.40,NNW,346,2.0,6.0,38,0.00,,---,0.00,VWS V14.01,2013-01-17 21:51:00,
2013-01-17 15:56:00,59.8,33.5,30.40,NNW,348,2.0,9.0,37,0.00,,---,0.00,VWS V14.01,2013-01-17 21:56:00,
2013-01-17 16:01:00,59.6,33.3,30.40,North,350,2.0,8.0,37,0.00,,---,0.00,VWS V14.01,2013-01-17 22:01:00,
2013-01-17 16:07:00,59.5,33.9,30.40,NNW,338,9.0,12.0,38,0.00,,---,0.00,VWS V14.01,2013-01-17 22:07:00,
2013-01-17 16:12:00,59.4,33.8,30.40,NNW,333,2.0,4.0,38,0.00,,---,0.00,VWS V14.01,2013-01-17 22:12:00,
2013-01-17 16:17:00,59.3,33.0,30.41,NNW,340,6.0,11.0,37,0.00,,---,0.00,VWS V14.01,2013-01-17 22:17:00,
2013-01-17 16:22:00,59.2,33.0,30.41,North,349,2.0,8.0,37,0.00,,---,0.00,VWS V14.01,2013-01-17 22:22:00,
2013-01-17 16:27:00,59.0,33.5,30.41,NNW,346,1.0,6.0,38,0.00,,---,0.00,VWS V14.01,2013-01-17 22:27:00,
2013-01-17 16:32:00,58.6,33.1,30.41,WNW,288,6.0,8.0,38,0.00,,---,0.00,VWS V14.01,2013-01-17 22:32:00,
2013-01-17 16:37:00,58.6,33.1,30.41,NW,315,4.0,7.0,38,0.00,,---,0.00,VWS V14.01,2013-01-17 22:37:00,
2013-01-17 16:42:00,58.6,32.4,30.41,North,360,3.0,8.0,37,0.00,,---,0.00,VWS V14.01,2013-01-17 22:42:00,
2013-01-17 16:47:00,58.2,33.4,30.42,NNE,29,4.0,5.0,39,0.00,,---,0.00,VWS V14.01,2013-01-17 22:47:00,
2013-01-17 16:52:00,57.8,33.0,30.42,NNW,331,2.0,6.0,39,0.00,,---,0.00,VWS V14.01,2013-01-17 22:52:00,
2013-01-17 16:58:00,57.8,32.4,30.42,NNW,331,4.0,5.0,38,0.00,,---,0.00,VWS V14.01,2013-01-17 22:58:00,
2013-01-17 17:03:00,57.4,32.7,30.42,NNW,342,1.0,3.0,39,0.00,,---,0.00,VWS V14.01,2013-01-17 23:03:00,
2013-01-17 17:08:00,56.9,32.8,30.42,North,5,3.0,7.0,40,0.00,,---,0.00,VWS V14.01,2013-01-17 23:08:00,
2013-01-17 17:13:00,56.3,32.3,30.42,NNW,342,0.0,4.0,40,0.00,,---,0.00,VWS V14.01,2013-01-17 23:13:00,
2013-01-17 17:18:00,55.7,32.4,30.42,North,9,2.0,6.0,41,0.00,,---,0.00,VWS V14.01,2013-01-17 23:18:00,
2013-01-17 17:23:00,55.3,32.0,30.42,NNE,30,1.0,5.0,41,0.00,,---,0.00,VWS V14.01,2013-01-17 23:23:00,
2013-01-17 17:28:00,55.0,32.3,30.42,NNE,12,0.0,5.0,42,0.00,,---,0.00,VWS V14.01,2013-01-17 23:28:00,
2013-01-17 17:33:00,54.6,32.0,30.43,NNE,22,2.0,4.0,42,0.00,,---,0.00,VWS V14.01,2013-01-17 23:33:00,
2013-01-17 17:38:00,54.2,31.6,30.43,North,5,0.0,5.0,42,0.00,,---,0.00,VWS V14.01,2013-01-17 23:38:00,
2013-01-17 17:43:00,53.8,31.9,30.43,North,5,1.0,3.0,43,0.00,,---,0.00,VWS V14.01,2013-01-17 23:43:00,
2013-01-17 17:48:00,53.5,31.6,30.43,North,5,0.0,0.0,43,0.00,,---,0.00,VWS V14.01,2013-01-17 23:48:00,
2013-01-17 17:53:00,53.1,31.8,30.43,North,5,0.0,1.0,44,0.00,,---,0.00,VWS V14.01,2013-01-17 23:53:00,
2013-01-17 17:58:00,52.7,32.0,30.43,North,5,0.0,0.0,45,0.00,,---,0.00,VWS V14.01,2013-01-17 23:58:00,
2013-01-17 18:03:00,52.4,31.7,30.43,North,5,0.0,0.0,45,0.00,,---,0.00,VWS V14.01,2013-01-18 00:03:00,
2013-01-17 18:08:00,52.0,31.9,30.44,North,5,0.0,0.0,46,0.00,,---,0.00,VWS V14.01,2013-01-18 00:08:00,
2013-01-17 18:13:00,51.6,31.5,30.44,North,5,0.0,0.0,46,0.00,,---,0.00,VWS V14.01,2013-01-18 00:13:00,
2013-01-17 18:18:00,51.2,31.7,30.44,North,5,0.0,0.0,47,0.00,,---,0.00,VWS V14.01,2013-01-18 00:18:00,
2013-01-17 18:23:00,50.7,31.7,30.44,North,5,0.0,0.0,48,0.00,,---,0.00,VWS V14.01,2013-01-18 00:23:00,
2013-01-17 18:28:00,50.3,31.9,30.44,North,5,0.0,0.0,49,0.00,,---,0.00,VWS V14.01,2013-01-18 00:28:00,
2013-01-17 18:33:00,49.9,31.5,30.44,North,5,0.0,0.0,49,0.00,,---,0.00,VWS V14.01,2013-01-18 00:33:00,
2013-01-17 18:39:00,49.5,31.6,30.44,North,5,0.0,0.0,50,0.00,,---,0.00,VWS V14.01,2013-01-18 00:39:00,
2013-01-17 18:44:00,49.2,31.9,30.44,North,5,0.0,0.0,51,0.00,,---,0.00,VWS V14.01,2013-01-18 00:44:00,
2013-01-17 18:49:00,48.7,31.9,30.44,North,5,0.0,0.0,52,0.00,,---,0.00,VWS V14.01,2013-01-18 00:49:00,
2013-01-17 18:54:00,48.3,32.0,30.44,North,5,0.0,0.0,53,0.00,,---,0.00,VWS V14.01,2013-01-18 00:54:00,
2013-01-17 18:59:00,47.9,32.1,30.44,North,5,0.0,0.0,54,0.00,,---,0.00,VWS V14.01,2013-01-18 00:59:00,
2013-01-17 19:04:00,47.3,32.0,30.45,North,5,0.0,0.0,55,0.00,,---,0.00,VWS V14.01,2013-01-18 01:04:00,
2013-01-17 19:09:00,46.8,32.0,30.45,North,5,0.0,0.0,56,0.00,,---,0.00,VWS V14.01,2013-01-18 01:09:00,
2013-01-17 19:14:00,46.5,31.7,30.45,North,5,0.0,0.0,56,0.00,,---,0.00,VWS V14.01,2013-01-18 01:14:00,
2013-01-17 19:19:00,46.4,32.0,30.45,North,5,0.0,0.0,57,0.00,,---,0.00,VWS V14.01,2013-01-18 01:19:00,
2013-01-17 19:24:00,46.2,32.2,30.45,North,5,0.0,0.0,58,0.00,,---,0.00,VWS V14.01,2013-01-18 01:24:00,
2013-01-17 19:29:00,45.8,32.3,30.45,North,5,0.0,0.0,59,0.00,,---,0.00,VWS V14.01,2013-01-18 01:29:00,
2013-01-17 19:34:00,45.6,31.7,30.45,North,5,0.0,0.0,58,0.00,,---,0.00,VWS V14.01,2013-01-18 01:34:00,
2013-01-17 19:39:00,45.8,32.3,30.45,North,5,0.0,0.0,59,0.00,,---,0.00,VWS V14.01,2013-01-18 01:39:00,
2013-01-17 19:45:00,45.6,32.5,30.46,North,5,0.0,0.0,60,0.00,,---,0.00,VWS V14.01,2013-01-18 01:45:00,
2013-01-17 19:50:00,45.1,32.5,30.46,North,5,0.0,0.0,61,0.00,,---,0.00,VWS V14.01,2013-01-18 01:50:00,
2013-01-17 19:55:00,44.9,32.3,30.46,North,5,0.0,0.0,61,0.00,,---,0.00,VWS V14.01,2013-01-18 01:55:00,
2013-01-17 20:00:00,44.9,32.7,30.46,North,5,0.0,0.0,62,0.00,,---,0.00,VWS V14.01,2013-01-18 02:00:00,
2013-01-17 20:05:00,44.6,32.8,30.46,North,5,0.0,0.0,63,0.00,,---,0.00,VWS V14.01,2013-01-18 02:05:00,
2013-01-17 20:10:00,44.0,33.0,30.46,North,5,0.0,0.0,65,0.00,,---,0.00,VWS V14.01,2013-01-18 02:10:00,
2013-01-17 20:15:00,43.4,32.4,30.47,North,5,0.0,0.0,65,0.00,,---,0.00,VWS V14.01,2013-01-18 02:15:00,
2013-01-17 20:20:00,42.9,32.3,30.47,North,5,0.0,0.0,66,0.00,,---,0.00,VWS V14.01,2013-01-18 02:20:00,
2013-01-17 20:25:00,42.4,32.2,30.47,North,5,0.0,0.0,67,0.00,,---,0.00,VWS V14.01,2013-01-18 02:25:00,
2013-01-17 20:30:00,42.0,32.2,30.47,North,5,0.0,0.0,68,0.00,,---,0.00,VWS V14.01,2013-01-18 02:30:00,
2013-01-17 20:35:00,41.5,32.1,30.47,North,5,0.0,0.0,69,0.00,,---,0.00,VWS V14.01,2013-01-18 02:35:00,
2013-01-17 20:40:00,40.9,32.2,30.47,North,5,0.0,0.0,71,0.00,,---,0.00,VWS V14.01,2013-01-18 02:40:00,
2013-01-17 20:45:00,40.5,31.9,30.47,North,5,0.0,0.0,71,0.00,,---,0.00,VWS V14.01,2013-01-18 02:45:00,
2013-01-17 20:50:00,40.1,31.8,30.47,North,5,0.0,0.0,72,0.00,,---,0.00,VWS V14.01,2013-01-18 02:50:00,
2013-01-17 20:55:00,39.6,31.7,30.47,North,5,0.0,0.0,73,0.00,,---,0.00,VWS V14.01,2013-01-18 02:55:00,
2013-01-17 21:00:00,39.2,31.3,30.48,North,5,0.0,0.0,73,0.00,,---,0.00,VWS V14.01,2013-01-18 03:00:00,
2013-01-17 21:05:00,38.8,30.9,30.48,North,5,0.0,0.0,73,0.00,,---,0.00,VWS V14.01,2013-01-18 03:05:00,
2013-01-17 21:11:00,38.5,31.3,30.48,North,5,0.0,0.0,75,0.00,,---,0.00,VWS V14.01,2013-01-18 03:11:00,
2013-01-17 21:16:00,38.2,31.3,30.48,North,5,0.0,0.0,76,0.00,,---,0.00,VWS V14.01,2013-01-18 03:16:00,
2013-01-17 21:21:00,38.0,31.1,30.48,North,5,0.0,0.0,76,0.00,,---,0.00,VWS V14.01,2013-01-18 03:21:00,
2013-01-17 21:26:00,37.7,31.1,30.48,North,5,0.0,0.0,77,0.00,,---,0.00,VWS V14.01,2013-01-18 03:26:00,
2013-01-17 21:31:00,37.3,30.8,30.48,North,5,0.0,0.0,77,0.00,,---,0.00,VWS V14.01,2013-01-18 03:31:00,
2013-01-17 21:36:00,36.9,30.7,30.48,North,5,0.0,0.0,78,0.00,,---,0.00,VWS V14.01,2013-01-18 03:36:00,
2013-01-17 21:41:00,36.6,30.7,30.48,North,5,0.0,0.0,79,0.00,,---,0.00,VWS V14.01,2013-01-18 03:41:00,
2013-01-17 21:46:00,36.4,30.8,30.48,North,5,0.0,0.0,80,0.00,,---,0.00,VWS V14.01,2013-01-18 03:46:00,
2013-01-17 21:51:00,36.3,31.0,30.49,North,5,0.0,0.0,81,0.00,,---,0.00,VWS V14.01,2013-01-18 03:51:00,
2013-01-17 21:56:00,36.3,31.0,30.49,North,5,0.0,0.0,81,0.00,,---,0.00,VWS V14.01,2013-01-18 03:56:00,
2013-01-17 22:01:00,36.1,30.8,30.49,North,5,0.0,0.0,81,0.00,,---,0.00,VWS V14.01,2013-01-18 04:01:00,
2013-01-17 22:06:00,35.9,30.6,30.49,North,5,0.0,0.0,81,0.00,,---,0.00,VWS V14.01,2013-01-18 04:06:00,
2013-01-17 22:12:00,35.5,30.3,30.49,North,5,0.0,0.0,81,0.00,,---,0.00,VWS V14.01,2013-01-18 04:12:00,
2013-01-17 22:17:00,35.4,30.5,30.49,North,5,0.0,0.0,82,0.00,,---,0.00,VWS V14.01,2013-01-18 04:17:00,
2013-01-17 22:22:00,35.3,30.4,30.49,North,5,0.0,0.0,82,0.00,,---,0.00,VWS V14.01,2013-01-18 04:22:00,
2013-01-17 22:27:00,35.0,30.4,30.49,North,5,0.0,0.0,83,0.00,,---,0.00,VWS V14.01,2013-01-18 04:27:00,
2013-01-17 22:32:00,35.0,30.4,30.49,North,5,0.0,0.0,83,0.00,,---,0.00,VWS V14.01,2013-01-18 04:32:00,
2013-01-17 22:37:00,35.1,30.8,30.49,North,5,0.0,0.0,84,0.00,,---,0.00,VWS V14.01,2013-01-18 04:37:00,
2013-01-17 22:42:00,35.2,30.6,30.50,North,5,0.0,0.0,83,0.00,,---,0.00,VWS V14.01,2013-01-18 04:42:00,
2013-01-17 22:47:00,35.0,30.1,30.50,North,5,0.0,0.0,82,0.00,,---,0.00,VWS V14.01,2013-01-18 04:47:00,
2013-01-17 22:52:00,34.8,30.2,30.50,North,5,0.0,0.0,83,0.00,,---,0.00,VWS V14.01,2013-01-18 04:52:00,
2013-01-17 22:57:00,34.4,29.8,30.50,North,5,0.0,0.0,83,0.00,,---,0.00,VWS V14.01,2013-01-18 04:57:00,
2013-01-17 23:00:00,34.2,29.6,30.50,North,5,0.0,0.0,83,0.00,,---,0.00,VWS V14.01,2013-01-18 05:00:00,
2013-01-17 23:01:00,34.1,29.5,30.50,North,5,0.0,0.0,83,0.00,,---,0.00,VWS V14.01,2013-01-18 05:01:00,
2013-01-17 23:03:00,34.0,29.4,30.50,North,5,0.0,0.0,83,0.00,,---,0.00,VWS V14.01,2013-01-18 05:03:00,
2013-01-17 23:08:00,33.7,29.1,30.50,North,5,0.0,0.0,83,0.00,,---,0.00,VWS V14.01,2013-01-18 05:08:00,
2013-01-17 23:13:00,33.5,29.5,30.50,North,5,0.0,0.0,85,0.00,,---,0.00,VWS V14.01,2013-01-18 05:13:00,
2013-01-17 23:18:00,33.4,29.4,30.50,North,5,0.0,0.0,85,0.00,,---,0.00,VWS V14.01,2013-01-18 05:18:00,
2013-01-17 23:23:00,33.4,30.0,30.50,North,5,0.0,0.0,87,0.00,,---,0.00,VWS V14.01,2013-01-18 05:23:00,
2013-01-17 23:28:00,33.3,29.3,30.51,North,5,0.0,0.0,85,0.00,,---,0.00,VWS V14.01,2013-01-18 05:28:00,
2013-01-17 23:33:00,33.3,29.6,30.51,North,5,0.0,0.0,86,0.00,,---,0.00,VWS V14.01,2013-01-18 05:33:00,
2013-01-17 23:38:00,33.1,29.4,30.51,North,5,0.0,0.0,86,0.00,,---,0.00,VWS V14.01,2013-01-18 05:38:00,
2013-01-17 23:44:00,32.9,29.2,30.51,North,5,0.0,0.0,86,0.00,,---,0.00,VWS V14.01,2013-01-18 05:44:00,
2013-01-17 23:49:00,32.7,29.0,30.51,North,5,0.0,0.0,86,0.00,,---,0.00,VWS V14.01,2013-01-18 05:49:00,
2013-01-17 23:54:00,32.6,29.2,30.51,North,5,0.0,0.0,87,0.00,,---,0.00,VWS V14.01,2013-01-18 05:54:00,
2013-01-17 23:59:00,32.5,29.1,30.51,North,5,0.0,0.0,87,0.00,,---,0.00,VWS V14.01,2013-01-18 05:59:00,